www.pogodaiklimat.ru

Погода и климат >> Архив погоды >> Россия >> Магаданская область >> Сусуман


ПОГОДА в Сусумане

  • Прогноз погоды в Сусумане
  • Монитор погоды в Сусумане
  • Климат города

АРХИВ ПОГОДЫ в Сусумане

Время (UTC), дата Ветер
(напр.,м/с)
 
Видим.   Явления Облачность Т
(С)
Тd
(С)
f
(%)
Тe
(С)
Тes
(С)
Комфортность P
(гПа)
Po
(гПа)
Тmin
(С)
Tmax
(С)
R
(мм)
R24
(мм)
S
(см)
18 18.05 СВ 1 20 км слабый ливневой дождь 10/10 800 м
[Cb cap]
+0.8 +0.5 98 -1 -1 1012.4 933.7
21 18.05 С 2 10 км слабый ливневой дождь со снегом 10/10 360 м
[Cb cap]
+2.0 +1.4 96 -1 -1 1012.9 934.5 +0.8 3
00 19.05 СВ 1 20 км слабый ливневой дождь 10/10 420 м
[Cb cap]
+3.9 +2.2 89 +2 +2 1012.7 934.9
03 19.05 З 2 10 км слабый ливневой дождь 10/10 360 м
[Cb cap]
+4.2 +2.5 89 +1 +1 1012.9 935.1
06 19.05 Ю 3 20 км осадки на расстоянии {ливн. осадки} 9/8 630 м
[Cb cap Ci fib]
+5.8 +2.8 81 +3 +4 1012.7 935.4
09 19.05 Ю 3 50 км {ливн. осадки} 9/9 840 м
[Cb cap]
+4.1 +2.0 86 0 0 1014.1 936.1 +6.6 3
12 19.05 Ю 2 10 км слабый ливневой дождь 10/10 450 м
[Cb cap]
+2.1 +1.6 96 -1 -1 1016.0 937.4
15 19.05 Ю 2 10 км слабый ливневой дождь 10/10 420 м
[Cb cap]
+2.1 +1.6 96 -1 -1 1016.3 937.6
18 19.05 ЮЗ 2 20 км в посл. час ливневой дождь 10/10 300 м
[Cb cap]
+0.6 +0.2 97 -3 -3 1017.7 938.5
21 19.05 З 2 50 км {туман} 8/3 300 м
[St Ci fib]
+2.6 +2.1 97 -1 +2 1017.4 938.8 0.0 4
00 20.05 З 4 50 км {туман} 4/4 1000 м
[Cu hum]
+8.3 +0.3 57 +6 +10 1014.7 937.8
03 20.05 ЮЗ 5 50 км 6/6 1170 м
[Cu hum]
+11.9 -1.9 38 +10 +12 1011.8 936.0
06 20.05 Ю 5-10
{10}
50 км 6/3 1000 м
[Cu hum Ac trans Ci fib]
+12.9 -4.1 30 +11 +13 1009.7 934.4
09 20.05 Ю 5
{12}
50 км 10/10 1110 м
[Cb cap]
+8.4 -3.3 43 +5 +5 1011.5 934.8 +13.5
12 20.05 Ю 2
{11}
50 км {ливн. осадки} 10/10 1000 м
[Cb cap]
+3.3 +0.8 84 0 0 1013.3 935.2
15 20.05 Ю 4 50 км 10/10 1170 м
[Cb cap]
+4.1 -1.5 67 0 0 1011.7 933.9
18 20.05 Ю 3 50 км 9/5 1000 м
[Cb cap Ac trans Ci fib]
+3.0 -2.3 68 -1 -1 1011.5 933.4
21 20.05 ЮЗ 3 50 км 8/4 1000 м
[Sc Ac trans]
+5.0 -2.1 60 +2 +3 1010.7 933.2 +2.3 0.0
00 21.05 ЮЗ 5 50 км 9/6 1050 м
[Sc Ac trans Ci fib]
+7.7 -2.1 50 +4 +6 1008.5 931.9
03 21.05 З 3 50 км 9/5 1000 м
[Cu Sc Ac trans Ci fib]
+9.6 -4.1 38 +8 +11 1005.6 929.7
06 21.05 З 3 50 км 9/4 1000 м
[Cb cap Ci fib]
+11.3 -6.0 29 +10 +13 1003.2 927.9
09 21.05 СЗ 3 50 км 8/4 1000 м
[Cb cap Ac trans]
+10.1 -6.0 32 +9 +9 1002.8 927.2 +11.3
12 21.05 СВ 1
{11}
50 км 9/8 900 м
[Cb cap Ac trans]
+5.5 -2.7 55 +5 +5 1004.0 927.1
15 21.05 ЮЗ 2 50 км 10/10 800 м
[Cb cap]
+3.6 +0.3 79 +1 +1 1004.1 926.8
18 21.05 В 1 10 км слабый ливневой дождь 10/10 840 м
[Cb cap]
+1.5 +0.8 95 -1 -1 1004.4 926.6
21 21.05 С 1 10 км слабый ливневой дождь 10/10 450 м
[Cb cap]
+3.2 +1.7 90 +2 +2 1003.7 926.4 +1.4 0.9
00 22.05 СВ 5-10
{11}
20 км {ливн. осадки} 10/10 660 м
[Cb cap]
+4.9 +0.2 72 0 0 1003.6 926.6
03 22.05 СВ 6
{10}
50 км 10/10 900 м
[Cb cap]
+6.0 -0.6 63 +2 +2 1004.2 927.5
06 22.05 СВ 4
{10}
20 км слабый ливневой дождь 10/10 840 м
[Cb cap]
+5.6 -0.0 67 +2 +2 1005.7 928.8
09 22.05 СВ 4 50 км {ливн. осадки} 9/4 1000 м
[Cb cap Cs]
+5.5 -1.1 62 +2 +2 1007.1 930.0 +7.0 0.0
12 22.05 СВ 3 50 км {ливн. осадки} 9/4 600 м
[Cb cap Ac trans Ci fib]
+1.7 -1.9 77 -2 -2 1009.7 931.4
15 22.05 СВ 2 50 км 9/3 600 м
[Cb cap Ac trans Ci fib]
0.0 -2.1 86 -4 -4 1011.2 932.3
18 22.05 С 2 50 км 9/0
[Ac trans Ci fib]
-1.3 -2.6 91 -5 -5 1012.7 933.3
21 22.05 СВ 3 50 км 9/0
[Ci fib]
+6.5 -1.5 57 +4 +7 1010.7 933.7 -1.7
00 23.05 В 4 50 км 8/4 1000 м
[Cu hum Ci fib]
+8.8 -1.5 48 +6 +10 1009.6 933.2
03 23.05 В 3 50 км 8/4 1000 м
[Sc diur, vesp Ci fib]
+10.5 -2.1 41 +9 +14 1008.8 932.9
06 23.05 В 4 50 км 9/5 1000 м
[Sc diur, vesp Cs]
+10.5 -2.7 39 +9 +10 1008.6 932.7
09 23.05 В 3 50 км 10/8 1170 м
[Sc Ac trans Cs]
+8.6 -2.2 47 +7 +7 1010.0 933.5 +11.5
12 23.05 СВ 4 50 км 10/8 1170 м
[Sc Ac trans Cs]
+4.8 +1.1 77 +1 +1 1012.0 934.4
15 23.05 СВ 3 50 км 10/8 1000 м
[Sc Ac trans Cs]
+2.7 +0.9 88 -1 -1 1012.8 934.6
18 23.05 СВ 2 50 км 6/3 1000 м
[Sc Ci fib]
-0.2 -0.6 97 -4 -4 1014.5 935.3
21 23.05 СЗ 1 50 км 4/4 1000 м
[Sc]
+6.1 -0.4 63 +5 +8 1012.6 935.3 -0.5
00 24.05 СЗ 1 50 км 8/5 1000 м
[Sc Ci fib]
+10.6 -2.3 40 +11 +16 1010.6 934.6
03 24.05 З 3 50 км 4/3 1000 м
[Sc Ci fib]
+13.8 -2.3 33 +13 +20 1008.4 933.3
06 24.05 ЮЗ 3 50 км 4/3 1000 м
[Sc Ci fib]
+15.3 -2.3 30 +15 +19 1006.9 932.3
09 24.05 З 3 50 км 9/1 1000 м
[Sc Ci fib]
+14.0 -3.5 30 +13 +14 1007.4 932.5 +15.4
12 24.05 Ю 2 50 км 9/0
[Ci sp]
+7.7 -1.0 54 +6 +6 1009.7 933.0
15 24.05 ЮЗ 2 50 км 9/0
[Cs]
+3.8 -1.0 71 +1 +1 1010.9 933.1
18 24.05 Ю 1 50 км 10/0
[As op]
+0.3 -1.7 86 -2 -2 1012.0 933.2
21 24.05 СВ 1 50 км 9/3 1000 м
[Sc Ac trans Ci fib]
+4.9 -0.6 68 +4 +6 1010.5 933.0 +0.1
00 25.05 С 2 50 км 8/0
[Ac trans Ci fib]
+12.9 -1.1 38 +13 +20 1007.3 932.2
03 25.05 В 4 50 км 9/6 1140 м
[Sc Ac trans]
+14.2 -0.4 37 +13 +15 1006.4 931.7
06 25.05 В 4
{10}
50 км 9/4 1000 м
[Sc Ac trans Ci fib]
+13.1 -0.3 40 +12 +13 1006.3 931.3
09 25.05 В 3
{10}
50 км 9/6 1110 м
[Sc Ac trans Ci fib]
+11.1 -0.3 45 +10 +10 1007.2 931.6 +14.6
12 25.05 СВ 2 50 км 9/4 1000 м
[Sc Ac trans Ci fib]
+6.6 +0.4 65 +5 +5 1009.8 932.8

 

Местоположение метеостанции Сусуман (Магаданская область, Россия): широта 62.78 долгота 148.10 высота над уровнем моря 655 м.

В архиве по умолчанию представлена погода в Сусумане за последнюю неделю. Архивные данные за месяц целиком и за предыдущие месяцы, начиная с января 2011 года, Вы можете получить, выбрав интересующий диапазон дат из раскрывающегося списка и нажав кнопку "Ввод!".


*Определитесь, кто Вы:
робот инопланетянин человек

Внимание! Время в таблицах - всемирное. Для получения местного времени необходимо прибавить поправку, которая в Сусумане равна 11 ч.

Смотрите также архив погоды в соседних городах и на ближайших метеорологических станциях:

Погода в Ягодной (Магаданская область, Россия) (82 км)
Погода в Озере Джека Лондона (Магаданская область, Россия) (106 км)
Погода в Колымской (Магаданская область, Россия) (107 км)
Погода в Совхозе Эльген (Магаданская область, Россия) (127 км)
Погода в Усть-Бохапче (Магаданская область, Россия) (149 км)
Погода в Делянкире (Якутия, Россия) (171 км)
Погода в Усть-Омчуге (Магаданская область, Россия) (201 км)
Погода в Среднекане (Магаданская область, Россия) (218 км)
Погода в Сеймчане (Магаданская область, Россия) (219 км)
Погода в Оймяконе (Якутия, Россия) (258 км)

Пояснения к столбцам:

Ветер - указаны скорость ветра в м/с - средняя за 10 мин, порывы в срок и между сроками (в фигурных скобках) и направление, откуда дует ветер: С - северный, СВ - северо-восточный, В - восточный, ЮВ - юго-восточный, Ю - южный, ЮЗ - юго-западный, З - западный, СЗ - северо-западный.
Видимость - горизонтальная дальность видимости в метрах или километрах. При видимости от 1 до 10 км при отсутствии осадков обычно наблюдается дымка, при ухудшении видимости до 1 км и менее - туман. В сухую погоду видимость может ухудшаться дымом, пылью или мглою.
Явления - указаны атмосферные явления, наблюдавшиеся в срок или в последний час перед сроком; фигурными скобками обозначены явления, наблюдавшиеся между сроками (за 1-3 часа до срока); квадратными скобками обозначены град или гололедные отложения с указанием их диаметра в мм.
Облачность - указаны через наклонную черту общая и нижняя облачность в баллах и высота нижней границы облаков в метрах; квадратными скобками обозначены формы облаков: Ci - перистые, Cs - перисто-слоистые, Cc - перисто-кучевые, Ac - высококучевые, As - высокослоистые, Sc - слоисто-кучевые, Ns - слоисто-дождевые, Cu - кучевые, Cb - кучево-дождевые. Подробнее классификацию облаков см. в Атласе облаков (PDF).
T - Температура воздуха - температура, измеренная на высоте 2 м над землей.
Td - Температура точки росы - температура, при понижении до которой содержащийся в воздухе водяной пар достигнет насыщения.
f - Относительная влажность воздуха - влажноcть воздуха, измеренная на высоте 2 м над землей.
Te - Эффективная температура - температура, которую ощущает одетый по сезону человек в тени. Характеристика душности погоды. При расчете учитывается влияние влажности воздуха и скорости ветра на теплоощущения человека.
Tes - Эффективная температура на солнце - температура, которую ощущает человек, с поправкой на солнечный нагрев. Характеристика знойности погоды. Зависит от высоты солнца над горизонтом, облачности и скорости ветра. Ночью, в пасмурную погоду, а также при ветре 12 м/с и более поправка равна нулю.
P - Атмосферное давление - приведенное к уровню моря атмосферное давление.
Po - Атмосферное давление - измеренное на уровне метеостанции атмосферное давление.
Tmin - Минимальная температура - минимум температуры воздуха на высоте 2 м над землей.
Tmax - Максимальная температура - максимум температуры воздуха на высоте 2 м над землей.
R - Количество осадков - Количество выпавших осадков за период времени, мм. При наведении курсора мыши на число - период времени, за который выпало указанное количество осадков.
R24 - Количество осадков - Количество выпавших осадков за 24 часа, мм.
S - Снежный покров - Высота снежного покрова, см. При наведении курсора мыши на число - состояние снежного покрова и степень покрытия местности в баллах.